DW9498 Weather Reports


time (UTC)temp
C
wind
direction
speed
KPH
gust
KPH
rain 1hr
cm
rain 24hr
cm
rain mn
cm
humidity
%
barometer
mb
20260507134340 11 172 3.2 9.7 0.00 0.00 0.00 66 1012.2
20260507133347 10 264 3.2 11.3 0.00 0.00 0.00 67 1012.2
20260507132348 10 132 3.2 11.3 0.00 0.00 0.00 68 1012.2
20260507131359 10 197 4.8 12.9 0.00 0.00 0.00 70 1012.3
20260507130327 9 159 3.2 9.7 0.00 0.00 0.00 71 1012.4
20260507125334 9 147 3.2 12.9 0.00 0.00 0.00 72 1012.6
20260507124336 8 289 1.6 9.7 0.00 0.00 0.00 73 1012.6
20260507123345 8 205 3.2 12.9 0.00 0.00 0.00 73 1012.5
20260507122330 8 171 3.2 12.9 0.00 0.00 0.00 74 1012.5
20260507121339 8 158 3.2 9.7 0.00 0.00 0.00 75 1012.6
20260507120334 7 196 3.2 11.3 0.00 0.00 0.00 75 1012.6
20260507115328 7 159 1.6 8.0 0.00 0.00 0.00 75 1012.5
20260507114329 7 356 3.2 6.4 0.00 0.00 0.00 74 1012.5
20260507113336 7 277 1.6 6.4 0.00 0.00 0.00 74 1012.5
20260507112335 7 133 1.6 11.3 0.00 0.00 0.00 74 1012.5
20260507111408 8 93 3.2 11.3 0.00 0.00 0.00 73 1012.5
20260507110325 8 155 1.6 8.0 0.00 0.00 0.00 73 1012.5
20260507105338 8 171 3.2 9.7 0.00 0.00 0.00 73 1012.4
20260507104325 8 125 1.6 12.9 0.00 0.00 0.00 73 1012.4
20260507103353 8 185 1.6 8.0 0.00 0.00 0.00 73 1012.4
20260507102324 8 142 1.6 11.3 0.00 0.00 0.00 72 1012.4
20260507101358 8 150 3.2 9.7 0.00 0.00 0.00 72 1012.4
20260507100326 8 199 3.2 11.3 0.00 0.00 0.00 72 1012.4
20260507095336 8 187 3.2 9.7 0.00 0.00 0.00 72 1012.6
20260507094539 8 149 3.2 9.7 0.00 0.00 0.00 71 1012.6
20260507093346 8 128 3.2 9.7 0.00 0.00 0.00 71 1012.7
20260507092331 8 156 1.6 6.4 0.00 0.00 0.00 70 1012.9
20260507091332 8 126 3.2 6.4 0.00 0.00 0.00 70 1012.9
20260507090343 8 169 1.6 8.0 0.00 0.00 0.00 69 1013.0
20260507085334 8 188 1.6 6.4 0.00 0.00 0.00 68 1013.1
20260507084340 8 211 3.2 8.0 0.00 0.00 0.00 68 1013.2
20260507083350 8 99 3.2 8.0 0.00 0.00 0.00 67 1013.3
20260507082330 8 134 3.2 8.0 0.00 0.00 0.00 66 1013.4
20260507081334 8 166 1.6 8.0 0.00 0.00 0.00 65 1013.5
20260507080323 8 170 1.6 6.4 0.00 0.00 0.00 64 1013.7
20260507075337 8 205 3.2 8.0 0.00 0.00 0.00 63 1013.8
20260507074404 8 244 1.6 8.0 0.00 0.00 0.00 63 1013.8
20260507073330 8 165 0.0 3.2 0.00 0.00 0.00 61 1013.9
20260507072323 8 150 0.0 3.2 0.00 0.00 0.00 60 1014.1
20260507071400 8 229 1.6 4.8 0.00 0.00 0.00 59 1014.1
20260507070325 8 138 0.0 3.2 0.00 0.00 0.00 58 1014.2
20260507065335 8 189 0.0 3.2 0.00 0.00 0.00 57 1014.4
20260507064341 8 178 0.0 1.6 0.00 0.00 0.00 55 1014.6
20260507063350 8 216 0.0 3.2 0.00 0.00 0.00 53 1014.6
20260507062333 7 160 0.0 1.6 0.00 0.00 0.00 53 1014.7
20260507061336 7 161 0.0 0.0 0.00 0.00 0.00 52 1014.8
20260507060347 7 161 0.0 0.0 0.00 0.00 0.00 51 1014.9
20260507055332 8 161 0.0 0.0 0.00 0.00 0.00 50 1014.9
20260507054337 8 161 0.0 0.0 0.00 0.00 0.00 47 1014.9
20260507053349 8 161 0.0 0.0 0.00 0.00 0.00 46 1014.9
20260507052336 8 161 0.0 0.0 0.00 0.00 0.00 45 1014.9
20260507051326 8 161 0.0 0.0 0.00 0.00 0.00 45 1015.0
20260507050339 8 161 0.0 0.0 0.00 0.00 0.00 45 1015.0
20260507045344 8 159 0.0 0.0 0.00 0.00 0.00 45 1015.0
20260507044351 8 159 0.0 0.0 0.00 0.00 0.00 47 1015.0
20260507043331 7 159 0.0 0.0 0.00 0.00 0.00 50 1015.1
20260507042328 6 159 0.0 0.0 0.00 0.00 0.00 54 1015.2
20260507041337 7 159 0.0 0.0 0.00 0.00 0.00 56 1015.2
20260507040337 7 159 0.0 0.0 0.00 0.00 0.00 54 1015.3
20260507035326 7 159 0.0 0.0 0.00 0.00 0.00 53 1015.4
20260507034346 7 159 0.0 0.0 0.00 0.00 0.00 51 1015.4
20260507033332 7 159 0.0 0.0 0.00 0.00 0.00 51 1015.5
20260507032324 8 159 0.0 0.0 0.00 0.00 0.00 48 1015.5
20260507031332 8 159 0.0 0.0 0.00 0.00 0.00 47 1015.5
20260507030322 8 159 0.0 0.0 0.00 0.00 0.00 48 1015.5
20260507025350 8 311 0.0 0.0 0.00 0.00 0.00 49 1015.5
20260507024333 8 311 0.0 0.0 0.00 0.00 0.00 47 1015.4
20260507023401 8 311 0.0 0.0 0.00 0.00 0.00 47 1015.3
20260507022324 9 311 0.0 0.0 0.00 0.00 0.00 44 1015.3
20260507021347 10 311 0.0 0.0 0.00 0.00 0.00 43 1015.2
20260507020329 10 311 0.0 0.0 0.00 0.00 0.00 42 1015.2
20260507015342 11 311 0.0 0.0 0.00 0.00 0.00 40 1015.2
20260507014347 11 311 0.0 0.0 0.00 0.00 0.00 37 1015.2
20260507013329 12 311 0.0 0.0 0.00 0.00 0.00 37 1015.1
20260507012339 13 311 0.0 0.0 0.00 0.00 0.00 34 1015.0
20260507011344 13 349 0.0 0.0 0.00 0.00 0.00 32 1015.1
20260507010355 13 349 0.0 1.6 0.00 0.00 0.00 30 1015.1
20260507005331 14 125 0.0 3.2 0.00 0.00 0.00 29 1015.1
20260507004340 14 351 0.0 4.8 0.00 0.00 0.00 29 1015.1
20260507003332 14 193 1.6 4.8 0.00 0.00 0.00 27 1015.2
20260507002324 15 349 3.2 6.4 0.00 0.00 0.00 28 1015.2
20260507001328 15 7 1.6 9.7 0.00 0.00 0.00 28 1015.3
20260507000336 15 142 3.2 8.0 0.00 0.00 0.00 26 1015.4
20260506235327 15 264 3.2 11.3 0.00 0.00 0.00 27 1015.4
20260506234404 16 225 0.0 12.9 0.00 0.00 0.00 26 1015.6
20260506233334 16 124 1.6 12.9 0.00 0.00 0.00 25 1015.7
20260506232324 17 126 0.0 8.0 0.00 0.00 0.00 25 1015.6
20260506231329 17 175 3.2 9.7 0.00 0.00 0.00 23 1015.7
20260506230337 17 18 0.0 6.4 0.00 0.00 0.00 26 1015.9
20260506225330 16 235 3.2 11.3 0.00 0.00 0.00 26 1015.8
20260506224336 16 340 1.6 11.3 0.00 0.00 0.00 27 1016.0
20260506223328 16 240 1.6 6.4 0.00 0.00 0.00 26 1016.0
20260506222335 16 22 1.6 8.0 0.00 0.00 0.00 27 1016.1
20260506221337 15 16 4.8 16.1 0.00 0.00 0.00 28 1016.2
20260506220329 15 282 4.8 19.3 0.00 0.00 0.00 27 1016.4
20260506215342 15 331 3.2 16.1 0.00 0.00 0.00 28 1016.4
20260506214326 16 133 3.2 16.1 0.00 0.00 0.00 27 1016.5
20260506213335 16 157 3.2 9.7 0.00 0.00 0.00 27 1016.6
20260506212346 15 307 3.2 9.7 0.00 0.00 0.00 27 1016.8
20260506211334 16 344 4.8 11.3 0.00 0.00 0.00 26 1016.9
20260506210325 16 6 1.6 9.7 0.00 0.00 0.00 27 1017.0
20260506205337 15 169 1.6 17.7 0.00 0.00 0.00 29 1017.1
20260506204342 16 351 6.4 16.1 0.00 0.00 0.00 27 1017.2
20260506203351 16 166 3.2 9.7 0.00 0.00 0.00 28 1017.4
20260506202331 15 171 1.6 9.7 0.00 0.00 0.00 29 1017.5
20260506201333 15 330 6.4 12.9 0.00 0.00 0.00 32 1017.5
20260506200324 15 311 8.0 16.1 0.00 0.00 0.00 29 1017.7
20260506195338 15 17 6.4 17.7 0.00 0.00 0.00 27 1017.9
20260506194412 14 37 1.6 17.7 0.00 0.00 0.00 34 1017.9
20260506193327 15 346 8.0 12.9 0.00 0.00 0.00 29 1017.9
20260506192412 15 41 6.4 16.1 0.00 0.00 0.00 32 1018.0
20260506191344 15 256 4.8 20.9 0.00 0.00 0.00 30 1017.9
20260506190333 15 95 4.8 16.1 0.00 0.00 0.00 29 1017.9
20260506185326 13 162 4.8 11.3 0.00 0.00 0.00 31 1018.1
20260506184400 13 43 4.8 11.3 0.00 0.00 0.00 33 1018.3
20260506183352 14 2 8.0 16.1 0.00 0.00 0.00 33 1018.3
20260506182331 13 323 6.4 19.3 0.00 0.00 0.00 33 1018.5
20260506181405 14 243 3.2 11.3 0.00 0.00 0.00 33 1018.6
20260506180346 13 221 4.8 16.1 0.00 0.00 0.00 33 1018.6
20260506175328 13 148 4.8 16.1 0.00 0.00 0.00 34 1018.8
20260506174355 12 315 3.2 17.7 0.00 0.00 0.00 35 1018.9
20260506173400 12 351 4.8 12.9 0.00 0.00 0.00 34 1019.0
20260506172330 13 15 3.2 16.1 0.00 0.00 0.00 35 1019.0
20260506171348 12 17 4.8 9.7 0.00 0.00 0.00 35 1019.3
20260506170327 12 330 6.4 19.3 0.00 0.00 0.00 35 1019.5
20260506165356 12 145 1.6 9.7 0.00 0.00 0.00 36 1019.4
20260506164336 12 358 3.2 12.9 0.00 0.00 0.00 40 1019.5
20260506163347 11 163 1.6 9.7 0.00 0.00 0.00 37 1019.6
20260506162338 11 13 1.6 11.3 0.00 0.00 0.00 37 1019.6
20260506161326 12 30 6.4 12.9 0.00 0.00 0.00 37 1019.5
20260506160357 11 347 3.2 12.9 0.00 0.00 0.00 41 1019.5
20260506155348 11 2 3.2 8.0 0.00 0.00 0.00 39 1019.4
20260506154348 11 338 3.2 9.7 0.00 0.00 0.00 41 1019.3
20260506153329 11 39 1.6 8.0 0.00 0.00 0.00 42 1019.4
20260506152337 11 358 3.2 6.4 0.00 0.00 0.00 42 1019.4
20260506151338 10 347 3.2 9.7 0.00 0.00 0.00 42 1019.4
20260506150328 10 339 4.8 9.7 0.00 0.00 0.00 42 1019.4
20260506145325 10 329 3.2 9.7 0.00 0.00 0.00 43 1019.4
20260506144332 10 20 1.6 6.4 0.00 0.00 0.00 45 1019.5
20260506143357 9 149 1.6 6.4 0.00 0.00 0.00 45 1019.4
20260506142329 9 17 1.6 6.4 0.00 0.00 0.00 45 1019.4
20260506141335 8 351 1.6 4.8 0.00 0.00 0.00 50 1019.3
20260506140325 8 21 0.0 4.8 0.00 0.00 0.00 48 1019.3
20260506135335 8 19 3.2 8.0 0.00 0.00 0.00 47 1019.3